Location: Unspecified
(44.4377°N, 88.0525°W)
Time: 23:00:40
(UTC-06:00)

Cosmos 2058 - Visible Passes

Search period start: 23 January 2017 00:00
Search period end: 02 February 2017 00:00
Orbit: 563 x 587 km, 82.5° (Epoch: 23 January)

Date Brightness Start Highest point End Pass type
(mag) Time Alt. Az. Time Alt. Az. Time Alt. Az.
23 Jan 4.5 04:38:10 29° SE 04:38:10 29° SE 04:40:27 10° SSE visible
23 Jan 4.9 06:14:29 11° WSW 06:14:29 11° WSW 06:15:01 10° WSW visible
23 Jan 4.9 18:35:27 10° SW 18:39:00 28° WNW 18:42:35 10° NNW visible
24 Jan 5.1 04:42:54 18° SSE 04:42:54 18° SSE 04:44:02 10° SSE visible
24 Jan 5.4 18:39:22 10° WSW 18:42:33 22° WNW 18:45:46 10° NNW visible
25 Jan 5.8 18:43:26 10° WSW 18:46:08 17° WNW 18:48:51 10° NNW visible
26 Jan 5.9 18:47:46 10° W 18:49:44 13° WNW 18:51:42 10° NW visible
31 Jan 4.7 17:26:04 10° SW 17:29:47 33° WNW 17:33:32 10° N visible
01 Feb 5.2 17:29:53 10° SW 17:33:19 25° WNW 17:36:47 10° NNW visible
